Location: Krakow
(50.0830°N, 19.9170°E)
Time: 17:56:46
(UTC+01:00)

SR - Pass Details

Date: 13 February 2023
Orbit: 582 x 867 km, 66.7° (Epoch: 20 March)

Event Time Altitude Azimuth Distance (km) Brightness Sun altitude
Rises 20:56:04 0° 316° (NW) 2,839 ? -38.3°
Reaches altitude 10° 20:58:31 10° 306° (NW) 1,917 ? -38.7°
Enters shadow 20:58:40 11° 305° (NW) 1,866 ? -38.7°
Maximum altitude 21:02:14 30° 245° (WSW) 1,066 - -39.2°
Drops below altitude 10° 21:05:56 10° 184° (S) 1,907 - -39.7°
Sets 21:08:22 0° 174° (S) 2,820 - -40.0°
